Ridgedale, MO

12:20 AM CDT on September 28, 2016 (GMT -0500)
Branson

Weather History for KBBG - November, 2013

Change the Weather History Date:

Friday, November 8, 2013

  Actual Average (KHRO) Record (KHRO)
Temperature  
Mean Temperature 50 °F 52 °F  
Max Temperature 64 °F 62 °F 82 °F (2006)
Min Temperature 37 °F 41 °F 10 °F (1991)
Degree Days  
Heating Degree Days 14 14  
Month to date heating degree days 99  
Since 1 July heating degree days 364  
Cooling Degree Days 0 0  
Month to date cooling degree days 0  
Year to date cooling degree days 1412  
Moisture  
Dew Point 36 °F    
Average Humidity 52    
Maximum Humidity 81    
Minimum Humidity 30    
Precipitation  
Precipitation 0.00 in 0.14 in 2.32 in (2011)
Month to date precipitation 1.15  
Year to date precipitation 37.86  
Snow  
Snow 0.00 in 0.00 in T in (1943)
Month to date snowfall 0.0  
Since 1 July snowfall 0.1  
Since 1 September snowfall 0.1  
Snow Depth -    
Sea Level Pressure  
Sea Level Pressure 30.25 in    
Wind  
Wind Speed 4 mph (South)    
Max Wind Speed 16 mph    
Max Gust Speed 21 mph    
Visibility 10 miles    
Events      
T = Trace of Precipitation, MM = Missing Value Source: NWS Daily Summary

Daily Weather History Graph

Daily Weather History Graph

Search for Another Location

Airport or City:

Trip Planner

Search our weather history database for the weather conditions in past years. The results will help you decide how hot, cold, wet, or windy it might be!

Date:

Astronomy

Nov. 08, 2013 Rise Set
Actual Time 6:43 AM CST 5:09 PM CST
Civil Twilight 6:16 AM CST 5:36 PM CST
Nautical Twilight 5:45 AM CST 6:07 PM CST
Astronomical Twilight 5:15 AM CST 6:37 PM CST
Moon 11:39 AM CST (11/8) 10:30 PM CST (11/8)
Length of Visible Light 11h 19m
Length of Day
10h 25m
Waxing Crescent, 33% of the Moon is Illuminated
Nov 8
Waxing Crescent
Nov 9
First Quarter
Nov 17
Full
Nov 25
Last Quarter
Dec 2
New

Hourly Weather History & Observations

Time (CST) Temp. Windchill Dew Point Humidity Pressure Visibility Wind Dir Wind Speed Gust Speed Precip Events Conditions
12:15 AM 42.8 °F 40.1 °F - N/A% 30.36 in 10.0 mi WSW 4.6 mph - N/A   Clear
12:35 AM 41.0 °F 38.0 °F - N/A% 30.36 in 10.0 mi SW 4.6 mph - N/A   Clear
12:55 AM 42.8 °F 41.1 °F - N/A% 30.36 in 10.0 mi SW 3.5 mph - N/A   Clear
1:15 AM 39.2 °F - - N/A% 30.36 in 10.0 mi Calm Calm - N/A   Clear
1:35 AM 41.0 °F - - N/A% 30.36 in 10.0 mi Calm Calm - N/A   Clear
1:55 AM 39.2 °F - - N/A% 30.36 in 10.0 mi Calm Calm - N/A   Clear
2:15 AM 39.2 °F - - N/A% 30.36 in 10.0 mi Calm Calm - N/A   Clear
2:35 AM 39.2 °F - - N/A% 30.35 in 10.0 mi Calm Calm - N/A   Clear
2:55 AM 39.2 °F - - N/A% 30.35 in 10.0 mi Calm Calm - N/A   Clear
3:15 AM 39.2 °F - - N/A% 30.35 in 10.0 mi Calm Calm - N/A   Clear
3:35 AM 39.2 °F 37.0 °F - N/A% 30.35 in 10.0 mi South 3.5 mph - N/A   Clear
3:55 AM 39.2 °F - - N/A% 30.34 in 10.0 mi Calm Calm - N/A   Clear
4:15 AM 39.2 °F - - N/A% 30.34 in 10.0 mi Calm Calm - N/A   Clear
4:35 AM 39.2 °F - - N/A% 30.34 in 10.0 mi Calm Calm - N/A   Clear
4:55 AM 37.4 °F - - N/A% 30.34 in 10.0 mi Calm Calm - N/A   Clear
5:15 AM 39.2 °F 37.0 °F - N/A% 30.34 in 10.0 mi SE 3.5 mph - N/A   Clear
5:35 AM 39.2 °F 37.0 °F - N/A% 30.33 in 10.0 mi SE 3.5 mph - N/A   Clear
6:45 AM 39.2 °F 35.0 °F 33.8 °F 81% 30.33 in 10.0 mi SE 5.8 mph - N/A   Partly Cloudy
7:45 AM 44.6 °F 41.4 °F 37.4 °F 76% 30.34 in 10.0 mi SSE 5.8 mph - N/A   Partly Cloudy
8:53 AM 48.2 °F - 35.6 °F 62% 30.34 in 10.0 mi SSE 9.2 mph - N/A   Partly Cloudy
9:51 AM 51.8 °F - 37.4 °F 58% 30.33 in 10.0 mi ESE 10.4 mph - N/A   Partly Cloudy
10:46 AM 55.4 °F - 37.4 °F 51% 30.31 in 10.0 mi South 9.2 mph - N/A   Partly Cloudy
11:55 AM 59.0 °F - 37.4 °F 45% 30.26 in 10.0 mi SSE 11.5 mph 18.4 mph N/A   Partly Cloudy
12:55 PM 62.6 °F - 37.4 °F 39% 30.22 in 10.0 mi SE 12.7 mph 16.1 mph N/A   Scattered Clouds
1:55 PM 64.4 °F - 32.0 °F 30% 30.18 in 10.0 mi South 16.1 mph 20.7 mph N/A   Partly Cloudy
2:45 PM 64.4 °F - 33.8 °F 32% 30.17 in 10.0 mi SSE 8.1 mph 18.4 mph N/A   Mostly Cloudy
3:45 PM 60.8 °F - 32.0 °F 34% 30.15 in 10.0 mi South 13.8 mph 20.7 mph N/A   Scattered Clouds
5:45 PM 55.4 °F - 33.8 °F 44% 30.13 in 10.0 mi SSE 11.5 mph 16.1 mph N/A   Mostly Cloudy
6:45 PM 51.8 °F - 37.4 °F 58% 30.12 in 10.0 mi SE 11.5 mph - N/A   Mostly Cloudy
7:45 PM 51.8 °F - 37.4 °F 58% 30.11 in 10.0 mi SSE 9.2 mph - N/A   Mostly Cloudy
8:15 PM 50.0 °F - - N/A% 30.11 in 10.0 mi SSE 8.1 mph - N/A   Clear
8:35 PM 50.0 °F - - N/A% 30.12 in 10.0 mi SSE 5.8 mph - N/A   Clear
8:45 PM 50.0 °F - 39.2 °F 66% 30.12 in 10.0 mi SSE 5.8 mph - N/A   Mostly Cloudy
8:55 PM 50.0 °F - - N/A% 30.12 in 10.0 mi South 4.6 mph - N/A   Clear
9:15 PM 50.0 °F - - N/A% 30.11 in 10.0 mi South 6.9 mph - N/A   Clear
9:35 PM 48.2 °F - - N/A% 30.13 in 10.0 mi South 3.5 mph - N/A   Clear
9:55 PM 48.2 °F - - N/A% 30.13 in 10.0 mi South 4.6 mph - N/A   Clear
10:15 PM 48.2 °F - - N/A% 30.14 in 10.0 mi Calm Calm - N/A   Clear
10:35 PM 48.2 °F - - N/A% 30.14 in 10.0 mi SSW 3.5 mph - N/A   Clear
10:55 PM 50.0 °F - - N/A% 30.15 in 10.0 mi South 3.5 mph - N/A   Clear
11:15 PM 48.2 °F - - N/A% 30.14 in 10.0 mi Calm Calm - N/A   Clear
11:35 PM 50.0 °F - - N/A% 30.14 in 10.0 mi South 4.6 mph - N/A   Clear
11:55 PM 50.0 °F - - N/A% 30.13 in 10.0 mi SSW 6.9 mph - N/A   Clear